Time,TemperatureF,DewpointF,PressureIn,WindDirection,WindDirectionDegrees,WindSpeedMPH,WindSpeedGustMPH,Humidity,HourlyPrecipIn,Conditions,Clouds,dailyrainin,SoftwareType,DateUTC
2013-02-01 00:00:00,24.2,20.0,29.96,NE,50,0.0,0.0,83,0.00,,,0.05,weatherlink.com 1.10,2013-02-01 05:00:00,
2013-02-01 00:15:00,24.3,20.0,29.96,NNE,27,0.0,0.0,82,0.00,,,0.00,weatherlink.com 1.10,2013-02-01 05:15:00,
2013-02-01 00:30:00,24.2,19.0,29.95,NNE,31,0.0,0.0,82,0.00,,,0.00,weatherlink.com 1.10,2013-02-01 05:30:00,
2013-02-01 00:45:00,24.6,20.0,29.94,North,360,0.0,0.0,82,0.00,,,0.00,weatherlink.com 1.10,2013-02-01 05:45:00,
2013-02-01 01:00:00,25.2,20.0,29.94,North,350,0.0,0.0,81,0.00,,,0.00,weatherlink.com 1.10,2013-02-01 06:00:00,
2013-02-01 01:15:00,25.5,21.0,29.94,NE,56,0.0,0.0,82,0.00,,,0.00,weatherlink.com 1.10,2013-02-01 06:15:00,
2013-02-01 01:30:00,25.7,21.0,29.92,NNE,30,0.0,0.0,83,0.00,,,0.00,weatherlink.com 1.10,2013-02-01 06:30:00,
2013-02-01 01:45:00,25.7,21.0,29.92,ESE,103,0.0,0.0,83,0.00,,,0.00,weatherlink.com 1.10,2013-02-01 06:45:00,
2013-02-01 02:00:00,26.1,22.0,29.91,NNE,24,0.0,0.0,84,0.00,,,0.00,weatherlink.com 1.10,2013-02-01 07:00:00,
2013-02-01 02:15:00,26.3,22.0,29.90,NE,37,0.0,0.0,84,0.00,,,0.00,weatherlink.com 1.10,2013-02-01 07:15:00,
2013-02-01 02:30:00,26.2,22.0,29.92,NNE,30,0.0,0.0,85,0.00,,,0.00,weatherlink.com 1.10,2013-02-01 07:30:00,
2013-02-01 02:45:00,26.2,22.0,29.91,NNE,27,0.0,0.0,85,0.00,,,0.00,weatherlink.com 1.10,2013-02-01 07:45:00,
2013-02-01 03:00:00,25.7,22.0,29.90,NNE,32,0.0,0.0,87,0.00,,,0.00,weatherlink.com 1.10,2013-02-01 08:00:00,
2013-02-01 03:15:00,24.8,22.0,29.92,NNW,335,0.0,0.0,90,0.00,,,0.00,weatherlink.com 1.10,2013-02-01 08:15:00,
2013-02-01 03:30:00,23.5,22.0,29.92,WSW,247,0.0,0.0,93,0.00,,,0.00,weatherlink.com 1.10,2013-02-01 08:30:00,
2013-02-01 03:45:00,22.8,21.0,29.91,North,355,0.0,0.0,94,0.00,,,0.00,weatherlink.com 1.10,2013-02-01 08:45:00,
2013-02-01 04:00:00,22.2,21.0,29.91,NNE,22,0.0,0.0,94,0.00,,,0.00,weatherlink.com 1.10,2013-02-01 09:00:00,
2013-02-01 04:15:00,21.7,20.0,29.92,ESE,105,0.0,0.0,94,0.00,,,0.00,weatherlink.com 1.10,2013-02-01 09:15:00,
2013-02-01 04:30:00,20.4,19.0,29.92,NW,306,0.0,0.0,94,0.00,,,0.00,weatherlink.com 1.10,2013-02-01 09:30:00,
2013-02-01 04:45:00,19.0,17.0,29.92,WNW,288,0.0,0.0,93,0.00,,,0.00,weatherlink.com 1.10,2013-02-01 09:45:00,
2013-02-01 05:00:00,16.6,15.0,29.94,WSW,257,0.0,0.0,93,0.00,,,0.00,weatherlink.com 1.10,2013-02-01 10:00:00,
2013-02-01 05:15:00,14.8,13.0,29.94,NW,317,0.0,0.0,92,0.00,,,0.00,weatherlink.com 1.10,2013-02-01 10:15:00,
2013-02-01 05:30:00,13.1,11.0,29.96,North,355,0.0,0.0,92,0.00,,,0.00,weatherlink.com 1.10,2013-02-01 10:30:00,
2013-02-01 05:46:00,11.3,9.0,29.96,NNE,16,0.0,0.0,91,0.00,,,0.00,weatherlink.com 1.10,2013-02-01 10:46:00,
2013-02-01 06:01:00,10.1,8.0,29.98,NW,319,0.0,0.0,90,0.00,,,0.00,weatherlink.com 1.10,2013-02-01 11:01:00,
2013-02-01 06:16:00,8.9,7.0,29.97,West,279,0.0,0.0,90,0.00,,,0.00,weatherlink.com 1.10,2013-02-01 11:16:00,
2013-02-01 06:31:00,8.1,6.0,29.96,NW,306,0.0,0.0,90,0.00,,,0.00,weatherlink.com 1.10,2013-02-01 11:31:00,
2013-02-01 06:46:00,7.6,5.0,29.96,NW,325,0.0,0.0,90,0.00,,,0.00,weatherlink.com 1.10,2013-02-01 11:46:00,
2013-02-01 07:01:00,7.0,5.0,29.98,NW,319,0.0,0.0,90,0.00,,,0.00,weatherlink.com 1.10,2013-02-01 12:01:00,
2013-02-01 07:16:00,6.3,4.0,30.00,NW,306,0.0,0.0,90,0.00,,,0.00,weatherlink.com 1.10,2013-02-01 12:16:00,
2013-02-01 07:31:00,5.6,3.0,30.02,NW,313,0.0,0.0,90,0.00,,,0.00,weatherlink.com 1.10,2013-02-01 12:31:00,
2013-02-01 07:46:00,4.9,2.0,30.03,North,360,0.0,0.0,89,0.00,,,0.00,weatherlink.com 1.10,2013-02-01 12:46:00,
2013-02-01 08:01:00,4.5,2.0,30.05,NNW,335,0.0,0.0,89,0.00,,,0.00,weatherlink.com 1.10,2013-02-01 13:01:00,
2013-02-01 08:16:00,4.2,2.0,30.06,WNW,301,0.0,0.0,89,0.00,,,0.00,weatherlink.com 1.10,2013-02-01 13:16:00,
2013-02-01 08:31:00,4.0,2.0,30.07,NW,309,0.0,0.0,90,0.00,,,0.00,weatherlink.com 1.10,2013-02-01 13:31:00,
2013-02-01 08:46:00,4.0,2.0,30.08,West,263,0.0,0.0,90,0.00,,,0.00,weatherlink.com 1.10,2013-02-01 13:46:00,
2013-02-01 09:01:00,3.9,2.0,30.09,West,274,0.0,0.0,90,0.00,,,0.00,weatherlink.com 1.10,2013-02-01 14:01:00,
2013-02-01 09:16:00,4.1,2.0,30.10,NW,311,0.0,0.0,89,0.00,,,0.00,weatherlink.com 1.10,2013-02-01 14:16:00,
2013-02-01 09:31:00,3.3,1.0,30.11,North,5,0.0,0.0,89,0.00,,,0.00,weatherlink.com 1.10,2013-02-01 14:31:00,
2013-02-01 09:47:00,3.3,1.0,30.12,NW,306,0.0,0.0,89,0.00,,,0.00,weatherlink.com 1.10,2013-02-01 14:47:00,
2013-02-01 10:01:00,3.2,1.0,30.14,NNW,327,0.0,0.0,89,0.00,,,0.00,weatherlink.com 1.10,2013-02-01 15:01:00,
2013-02-01 10:16:00,3.3,1.0,30.14,WNW,285,0.0,0.0,89,0.00,,,0.00,weatherlink.com 1.10,2013-02-01 15:16:00,
2013-02-01 10:32:00,3.5,1.0,30.16,North,10,0.0,0.0,89,0.00,,,0.00,weatherlink.com 1.10,2013-02-01 15:32:00,
2013-02-01 10:46:00,3.6,1.0,30.17,NNW,331,0.0,0.0,89,0.00,,,0.00,weatherlink.com 1.10,2013-02-01 15:46:00,
2013-02-01 11:02:00,3.6,1.0,30.17,NW,320,0.0,0.0,89,0.00,,,0.00,weatherlink.com 1.10,2013-02-01 16:02:00,
2013-02-01 11:16:00,3.9,1.0,30.18,West,275,0.0,0.0,89,0.00,,,0.00,weatherlink.com 1.10,2013-02-01 16:16:00,
2013-02-01 11:31:00,4.2,2.0,30.18,West,267,0.0,0.0,89,0.00,,,0.00,weatherlink.com 1.10,2013-02-01 16:31:00,
2013-02-01 11:46:00,4.5,2.0,30.19,NW,306,0.0,0.0,89,0.00,,,0.00,weatherlink.com 1.10,2013-02-01 16:46:00,
2013-02-01 12:01:00,5.0,3.0,30.19,NW,309,0.0,0.0,90,0.00,,,0.00,weatherlink.com 1.10,2013-02-01 17:01:00,
2013-02-01 12:17:00,5.6,3.0,30.19,West,267,0.0,0.0,90,0.00,,,0.00,weatherlink.com 1.10,2013-02-01 17:17:00,
2013-02-01 12:32:00,5.8,4.0,30.20,NW,323,0.0,0.0,90,0.00,,,0.00,weatherlink.com 1.10,2013-02-01 17:32:00,
2013-02-01 12:47:00,5.7,3.0,30.19,West,271,0.0,0.0,90,0.00,,,0.00,weatherlink.com 1.10,2013-02-01 17:47:00,
2013-02-01 13:02:00,6.3,4.0,30.20,WNW,292,0.0,0.0,90,0.00,,,0.00,weatherlink.com 1.10,2013-02-01 18:02:00,
2013-02-01 13:17:00,6.6,4.0,30.20,WNW,293,0.0,0.0,89,0.00,,,0.00,weatherlink.com 1.10,2013-02-01 18:17:00,
2013-02-01 13:32:00,7.5,5.0,30.20,NW,321,0.0,0.0,90,0.00,,,0.00,weatherlink.com 1.10,2013-02-01 18:32:00,
2013-02-01 13:47:00,8.0,6.0,30.21,SSE,160,0.0,0.0,89,0.00,,,0.00,weatherlink.com 1.10,2013-02-01 18:47:00,
2013-02-01 14:02:00,8.4,6.0,30.22,NW,311,0.0,0.0,89,0.00,,,0.00,weatherlink.com 1.10,2013-02-01 19:02:00,
2013-02-01 14:17:00,8.8,6.0,30.22,NNW,329,0.0,0.0,89,0.00,,,0.00,weatherlink.com 1.10,2013-02-01 19:17:00,
2013-02-01 14:32:00,8.8,6.0,30.23,WNW,298,0.0,0.0,89,0.00,,,0.00,weatherlink.com 1.10,2013-02-01 19:32:00,
2013-02-01 14:47:00,9.0,6.0,30.23,NW,316,0.0,0.0,89,0.00,,,0.00,weatherlink.com 1.10,2013-02-01 19:47:00,
2013-02-01 15:02:00,9.0,6.0,30.23,WNW,283,0.0,0.0,88,0.00,,,0.00,weatherlink.com 1.10,2013-02-01 20:02:00,
2013-02-01 15:17:00,8.9,6.0,30.23,NE,48,0.0,0.0,88,0.00,,,0.00,weatherlink.com 1.10,2013-02-01 20:17:00,
2013-02-01 15:32:00,9.5,7.0,30.24,NW,312,0.0,0.0,88,0.00,,,0.00,weatherlink.com 1.10,2013-02-01 20:32:00,
2013-02-01 15:47:00,9.7,7.0,30.24,WNW,302,0.0,0.0,88,0.00,,,0.00,weatherlink.com 1.10,2013-02-01 20:47:00,
2013-02-01 16:02:00,9.2,6.0,30.25,NW,305,0.0,0.0,88,0.00,,,0.00,weatherlink.com 1.10,2013-02-01 21:02:00,
2013-02-01 16:17:00,9.0,6.0,30.25,WNW,303,0.0,0.0,88,0.00,,,0.00,weatherlink.com 1.10,2013-02-01 21:17:00,
2013-02-01 16:32:00,9.0,6.0,30.27,WNW,295,0.0,0.0,88,0.00,,,0.00,weatherlink.com 1.10,2013-02-01 21:32:00,
2013-02-01 16:47:00,9.4,7.0,30.27,WSW,255,0.0,0.0,88,0.00,,,0.00,weatherlink.com 1.10,2013-02-01 21:47:00,
2013-02-01 17:02:00,8.8,6.0,30.27,NW,312,0.0,0.0,88,0.00,,,0.00,weatherlink.com 1.10,2013-02-01 22:02:00,
2013-02-01 17:17:00,8.5,6.0,30.27,NE,55,0.0,0.0,88,0.00,,,0.00,weatherlink.com 1.10,2013-02-01 22:17:00,
2013-02-01 17:32:00,7.9,5.0,30.28,West,274,0.0,0.0,88,0.00,,,0.00,weatherlink.com 1.10,2013-02-01 22:32:00,
2013-02-01 17:47:00,7.6,5.0,30.28,North,5,0.0,0.0,88,0.00,,,0.00,weatherlink.com 1.10,2013-02-01 22:47:00,
2013-02-01 18:02:00,7.3,5.0,30.27,WNW,285,0.0,0.0,89,0.00,,,0.00,weatherlink.com 1.10,2013-02-01 23:02:00,
2013-02-01 18:17:00,6.9,4.0,30.28,NW,313,0.0,0.0,89,0.00,,,0.00,weatherlink.com 1.10,2013-02-01 23:17:00,
2013-02-01 18:32:00,6.7,4.0,30.29,NNW,329,0.0,0.0,89,0.00,,,0.00,weatherlink.com 1.10,2013-02-01 23:32:00,
2013-02-01 18:47:00,6.6,4.0,30.29,WNW,288,0.0,0.0,89,0.00,,,0.00,weatherlink.com 1.10,2013-02-01 23:47:00,
2013-02-01 19:02:00,6.5,4.0,30.31,NW,319,0.0,0.0,89,0.00,,,0.00,weatherlink.com 1.10,2013-02-02 00:02:00,
2013-02-01 19:17:00,6.4,4.0,30.31,NW,325,0.0,0.0,89,0.00,,,0.00,weatherlink.com 1.10,2013-02-02 00:17:00,
2013-02-01 19:32:00,6.4,4.0,30.32,NNW,336,0.0,0.0,89,0.00,,,0.00,weatherlink.com 1.10,2013-02-02 00:32:00,
2013-02-01 19:47:00,6.5,4.0,30.32,WNW,300,0.0,0.0,89,0.00,,,0.00,weatherlink.com 1.10,2013-02-02 00:47:00,
2013-02-01 20:02:00,6.7,4.0,30.32,West,259,0.0,0.0,89,0.00,,,0.00,weatherlink.com 1.10,2013-02-02 01:02:00,
2013-02-01 20:18:00,6.8,4.0,30.33,NE,55,0.0,0.0,88,0.00,,,0.00,weatherlink.com 1.10,2013-02-02 01:18:00,
2013-02-01 20:32:00,6.9,4.0,30.33,WNW,290,0.0,0.0,88,0.00,,,0.00,weatherlink.com 1.10,2013-02-02 01:32:00,
2013-02-01 20:47:00,7.0,4.0,30.33,NW,308,0.0,0.0,87,0.00,,,0.00,weatherlink.com 1.10,2013-02-02 01:47:00,
2013-02-01 21:02:00,7.1,4.0,30.33,North,355,0.0,0.0,87,0.00,,,0.00,weatherlink.com 1.10,2013-02-02 02:02:00,
2013-02-01 21:18:00,7.3,4.0,30.34,NW,304,0.0,0.0,87,0.00,,,0.00,weatherlink.com 1.10,2013-02-02 02:18:00,
2013-02-01 21:32:00,7.6,4.0,30.34,NW,311,0.0,0.0,86,0.00,,,0.00,weatherlink.com 1.10,2013-02-02 02:32:00,
2013-02-01 21:47:00,7.7,4.0,30.34,SW,229,0.0,0.0,85,0.00,,,0.00,weatherlink.com 1.10,2013-02-02 02:47:00,
2013-02-01 22:03:00,8.1,5.0,30.34,NW,313,0.0,0.0,85,0.00,,,0.00,weatherlink.com 1.10,2013-02-02 03:03:00,
2013-02-01 22:17:00,8.1,4.0,30.34,NW,311,0.0,0.0,84,0.00,,,0.00,weatherlink.com 1.10,2013-02-02 03:17:00,
2013-02-01 22:33:00,8.5,4.0,30.34,WSW,251,0.0,0.0,83,0.00,,,0.00,weatherlink.com 1.10,2013-02-02 03:33:00,
2013-02-01 22:48:00,8.8,4.0,30.34,NNE,33,0.0,0.0,81,0.00,,,0.00,weatherlink.com 1.10,2013-02-02 03:48:00,
2013-02-01 23:02:00,9.2,4.0,30.34,ENE,68,0.0,0.0,79,0.00,,,0.00,weatherlink.com 1.10,2013-02-02 04:02:00,
2013-02-01 23:17:00,9.3,4.0,30.36,NW,312,0.0,0.0,78,0.00,,,0.00,weatherlink.com 1.10,2013-02-02 04:17:00,
2013-02-01 23:33:00,9.6,3.0,30.36,NNW,346,0.0,0.0,75,0.00,,,0.00,weatherlink.com 1.10,2013-02-02 04:33:00,
2013-02-01 23:47:00,9.7,3.0,30.37,WNW,300,0.0,0.0,75,0.00,,,0.00,weatherlink.com 1.10,2013-02-02 04:47:00,